User: anonymous   Login
Location: Stoke Bliss
(52.2667°N, 2.5167°W)
Time: 14:07:25
(UTC+00:00)
Language:

Cosmos 2221 Rocket - Orbit

View from above orbital plane
View from above orbital plane
View from above satellite
View from above satellite

Ground track
Ground track

The orbit data is extracted from the following two-line orbital elements,

1 22237U 92080B   21128.81404088  .00000068  00000-0  61959-5 0  9991
2 22237  82.5139 235.1569 0018470 233.8770 126.0733 14.78443074533394
Epoch (UTC): 08 May 2021 19:32:13
Eccentricity: 0.0018470
inclination: 82.5139°
perigee height: 621 km
apogee height: 647 km
right ascension of ascending node: 235.1569°
argument of perigee: 233.8770°
revolutions per day: 14.78443074
mean anomaly at epoch: 126.0733°
orbit number at epoch: 53339

The dashed part of the orbit path shows where the satellite is in the earth's shadow,  

DLR